Location: Unspecified
(17.6330°N, 0.0000°E)
Time: 03:04:31
(UTC+00:00)

Vanguard 2 Rocket - All Passes

Search period start: 26 June 2019 00:00
Search period end: 06 July 2019 00:00
Orbit: 555 x 3326 km, 32.9° (Epoch: 25 June)

Date Brightness Start Highest point End Pass type
(mag) Time Alt. Az. Time Alt. Az. Time Alt. Az.
26 Jun - 00:10:44 10° NW 00:22:03 52° NNE 00:40:04 10° E visible
26 Jun - 02:24:51 10° WNW 02:40:27 87° SSW 03:01:12 10° SE visible
26 Jun - 04:42:05 10° WNW 04:59:03 42° SW 05:16:33 10° SSE visible
26 Jun - 07:12:43 10° SW 07:17:32 11° SW 07:22:09 10° SSW daylight
26 Jun - 16:33:26 10° S 16:35:53 16° SE 16:38:36 10° ESE daylight
26 Jun - 18:43:58 10° WSW 18:48:22 59° NNW 18:55:14 10° NE daylight
26 Jun - 20:57:40 10° WNW 21:03:31 31° N 21:12:53 10° ENE visible
26 Jun - 23:11:17 10° NW 23:20:34 42° NNE 23:35:51 10° E visible
27 Jun - 01:24:47 10° WNW 01:38:23 77° NNE 01:58:43 10° ESE visible
27 Jun - 03:40:16 10° WNW 03:56:52 54° SW 04:16:14 10° SE visible
27 Jun - 06:03:02 10° WSW 06:15:26 20° SW 06:27:19 10° S daylight
27 Jun - 17:45:02 10° SW 17:49:02 81° SSE 17:54:37 10° ENE daylight
27 Jun - 19:58:18 10° WNW 20:03:08 31° N 20:10:39 10° NE visible
27 Jun - 22:12:01 10° NW 22:19:28 34° NNE 22:31:39 10° ENE visible
28 Jun - 00:25:07 10° NW 00:36:41 63° NNE 00:55:26 10° ESE visible
28 Jun - 02:39:22 10° WNW 02:54:41 69° SW 03:15:02 10° SE visible
28 Jun - 04:58:18 10° W 05:13:18 29° SW 05:28:50 10° SSE visible
28 Jun - 16:46:22 10° SSW 16:50:00 37° SE 16:54:14 10° ENE daylight
28 Jun - 18:58:56 10° W 19:03:09 35° NNW 19:09:24 10° NE visible
28 Jun - 21:12:49 10° NW 21:18:43 28° N 21:27:59 10° ENE visible
28 Jun - 23:25:47 10° NW 23:35:23 49° NNE 23:51:32 10° E visible
29 Jun - 01:39:10 10° WNW 01:52:43 85° SSW 02:13:03 10° SE visible
29 Jun - 03:55:37 10° W 04:11:07 40° SW 04:29:03 10° SSE visible
29 Jun - 06:25:10 10° SW 06:30:25 11° SW 06:35:32 10° SSW daylight
29 Jun - 15:48:14 10° S 15:50:57 17° SE 15:53:38 10° ESE daylight
29 Jun - 17:59:36 10° W 18:03:32 49° NNW 18:08:54 10° NE daylight
29 Jun - 20:13:35 10° NW 20:18:17 25° N 20:25:14 10° NE visible
29 Jun - 22:26:40 10° NW 22:34:27 38° NNE 22:47:24 10° E visible
30 Jun - 00:39:27 10° WNW 00:51:06 78° NNE 01:10:17 10° ESE visible
30 Jun - 02:54:14 10° WNW 03:08:58 52° SW 03:28:19 10° SE visible
30 Jun - 05:16:12 10° WSW 05:27:57 19° SW 05:40:03 10° S daylight
30 Jun - 17:00:23 10° WSW 17:04:17 89° NNW 17:08:54 10° ENE daylight
30 Jun - 19:14:14 10° WNW 19:18:08 24° N 19:23:36 10° NE visible
30 Jun - 21:27:41 10° NW 21:33:49 29° NNE 21:43:31 10° ENE visible
30 Jun - 23:40:08 10° NW 23:49:56 62° NNE 00:06:53 10° ESE visible
01 Jul - 01:53:43 10° WNW 02:07:01 65° SSW 02:26:48 10° SE visible
01 Jul - 04:11:56 10° W 04:25:38 27° SW 04:41:09 10° SSE visible
01 Jul - 16:01:20 10° SW 16:05:14 42° SSE 16:09:05 10° ENE daylight
01 Jul - 18:14:43 10° WNW 18:18:18 27° NNW 18:22:59 10° NE daylight
01 Jul - 20:28:44 10° NW 20:33:26 23° N 20:40:18 10° ENE visible
01 Jul - 22:41:06 10° NW 22:49:09 46° NNE 23:03:05 10° E visible
02 Jul - 00:53:50 10° WNW 01:05:26 82° SSW 01:24:34 10° SE visible
02 Jul - 03:09:40 10° W 03:23:26 37° SW 03:41:00 10° SSE visible
02 Jul - 05:38:53 10° SW 05:43:15 11° SSW 05:47:40 10° SSW daylight
02 Jul - 15:02:34 10° SSW 15:06:04 21° SSE 15:09:08 10° E daylight
02 Jul - 17:15:06 10° W 17:18:48 40° NNW 17:23:07 10° NE daylight
02 Jul - 19:29:38 10° NW 19:33:14 19° N 19:38:04 10° NE visible
02 Jul - 21:42:15 10° NW 21:48:41 34° NNE 21:59:16 10° E visible
02 Jul - 23:54:26 10° WNW 00:04:17 80° NNE 00:21:42 10° ESE visible
03 Jul - 02:08:39 10° WNW 02:21:27 48° SSW 02:39:58 10° SE visible
03 Jul - 04:30:04 10° WSW 04:40:35 18° SW 04:52:05 10° S visible
03 Jul - 14:04:29 10° S 14:06:33 12° SSE 14:08:24 10° SE daylight
03 Jul - 16:15:29 10° WSW 16:19:36 77° NNW 16:23:39 10° ENE daylight
03 Jul - 18:30:12 10° NW 18:33:15 18° N 18:37:02 10° NE daylight
03 Jul - 20:43:31 10° NW 20:48:27 25° NNE 20:55:48 10° ENE visible
03 Jul - 22:55:23 10° NW 23:03:37 60° NNE 23:18:23 10° ESE visible
04 Jul - 01:08:27 10° WNW 01:19:49 61° SSW 01:38:13 10° SE visible
04 Jul - 03:26:09 10° W 03:38:12 25° SSW 03:52:53 10° SSE visible
04 Jul - 15:15:55 10° SW 15:20:30 51° SSE 15:24:18 10° ENE daylight
04 Jul - 17:30:22 10° WNW 17:33:31 22° NNW 17:37:05 10° NE daylight
04 Jul - 19:44:46 10° NW 19:48:20 18° N 19:53:04 10° NE visible
04 Jul - 21:56:35 10° NW 22:03:18 43° NNE 22:14:54 10° E visible
05 Jul - 00:08:50 10° WNW 00:18:38 78° SSW 00:35:54 10° SE visible
05 Jul - 02:24:13 10° W 02:36:07 33° SSW 02:52:28 10° SSE visible
05 Jul - 14:16:28 10° SSW 14:21:13 28° SSE 14:24:50 10° E daylight
05 Jul - 16:30:18 10° W 16:34:05 34° NNW 16:37:49 10° NE daylight
05 Jul - 18:45:45 10° NW 18:48:19 15° N 18:51:20 10° NE daylight
05 Jul - 20:57:57 10° NW 21:03:15 30° NNE 21:11:33 10° E visible
05 Jul - 23:09:40 10° WNW 23:17:57 81° NNE 23:33:09 10° ESE visible
